SENTINEL-5P (42969 NORAD) Tracking and Keplerian Element Data

This shows tracking and keplerian element data for the satellite.

Feedback or suggestion? Click here.




ElementValue
Catalog42969
NameSENTINEL-5P
Epoch Orbit32381
Epoch Day12.85137168
Epoch Year2024
RAAN314.4193
Inclination98.7267
Eccentricity0.0001477
Argument of Perigee100.452
Mean Anonmoly259.6822
Mean Motion14.19548713
Decay Rate1.66E-06
L11 42969U 17064A 24012.85137168 .00000166 00000+0 99517-4 0 9993
L22 42969 98.7267 314.4193 0001477 100.4520 259.6822 14.19548713323811



Live tracking and technical data element details for SENTINEL-5P (NORAD 42969). SENTINEL-5P can be tracked NOW for your location showing map with azimuth and elevation plus other details from your city location.







IsCatalogInMostPopularTable: catalog: 42969, numindb: 1141
Update: records affected: 1



GetName: 42969 SENTINEL-5P

Hit Count: updated at: Wed, 21 Feb 2024 08:39:32 GMT